Weather History for Laredo, TX

Change the Weather History Date:

Monday, September 30, 2013

  Actual Average Record
Temperature  
Mean Temperature 82 °F 80 °F  
Max Temperature 91 °F 90 °F 100 °F (1997)
Min Temperature 73 °F 69 °F 49 °F (1918)
Degree Days  
Heating Degree Days 0 0  
Month to date heating degree days 0 0  
Since 1 July heating degree days 0 1  
Cooling Degree Days 17 15  
Month to date cooling degree days 560 542  
Year to date cooling degree days 3965 3785  
Growing Degree Days 31 (Base 50)    
Moisture  
Dew Point 72 °F    
Average Humidity 80    
Maximum Humidity 100    
Minimum Humidity 50    
Precipitation  
Precipitation 0.00 in 0.09 in 1.25 in (1925)
Month to date precipitation 3.35 2.93  
Year to date precipitation 16.22 15.92  
Sea Level Pressure  
Sea Level Pressure 29.88 in    
Wind  
Wind Speed 3 mph (SE)    
Max Wind Speed 9 mph    
Max Gust Speed 12 mph    
Visibility 10 miles    
Events      
T = Trace of Precipitation, MM = Missing Value Source: NWS Daily Summary

Daily Weather History Graph

Daily Weather History Graph

Search for Another Location

Airport:

Trip Planner

Search our weather history database for the weather conditions in past years. The results will help you decide how hot, cold, wet, or windy it might be!

Date:

Astronomy

Sep. 30, 2013 Rise Set
Actual Time 7:30 AM CDT 7:24 PM CDT
Civil Twilight 7:06 AM CDT 7:48 PM CDT
Nautical Twilight 6:39 AM CDT 8:15 PM CDT
Astronomical Twilight 6:12 AM CDT 8:42 PM CDT
Moon 3:28 AM CDT (9/30) 4:39 PM CDT (9/30)
Length of Visible Light 12h 41m
Length of Day
11h 54m
Waning Crescent, 19% of the Moon is Illuminated
Sep 30
Waning Crescent
Oct 4
New
Oct 11
First Quarter
Oct 18
Full
Oct 26
Last Quarter

Hourly Weather History & Observations

Time (CDT) Temp. Heat Index Dew Point Humidity Pressure Visibility Wind Dir Wind Speed Gust Speed Precip Events Conditions
12:43 AM 75.2 °F - 71.6 °F 89% 29.98 in 10.0 mi Calm Calm - N/A   Mostly Cloudy
12:56 AM 75.9 °F - 72.9 °F 90% 29.94 in 10.0 mi Calm Calm - N/A   Mostly Cloudy
1:56 AM 74.8 °F - 72.9 °F 94% 29.92 in 10.0 mi Calm Calm - N/A   Partly Cloudy
2:12 AM 75.2 °F - 73.4 °F 94% 29.95 in 10.0 mi Calm Calm - N/A   Mostly Cloudy
2:56 AM 74.8 °F - 73.9 °F 97% 29.91 in 10.0 mi Calm Calm - N/A   Overcast
3:43 AM 73.4 °F - 73.4 °F 100% 29.94 in 10.0 mi NW 4.6 mph - N/A   Scattered Clouds
3:56 AM 73.9 °F - 73.9 °F 100% 29.90 in 10.0 mi WNW 3.5 mph - N/A   Clear
4:56 AM 72.9 °F - 72.9 °F 100% 29.90 in 10.0 mi WNW 3.5 mph - N/A   Clear
5:56 AM 72.9 °F - 72.9 °F 100% 29.90 in 10.0 mi Calm Calm - N/A   Overcast
6:56 AM 72.9 °F - 72.9 °F 100% 29.90 in 10.0 mi Calm Calm - N/A   Overcast
7:56 AM 73.9 °F - 73.9 °F 100% 29.90 in 10.0 mi NE 5.8 mph - N/A   Overcast
8:56 AM 73.9 °F - 73.9 °F 100% 29.91 in 10.0 mi ENE 6.9 mph - N/A   Overcast
9:56 AM 77.9 °F - 73.9 °F 88% 29.91 in 10.0 mi Calm Calm - N/A   Scattered Clouds
10:56 AM 81.0 °F 85.2 °F 72.0 °F 74% 29.91 in 10.0 mi Calm Calm - N/A   Clear
11:56 AM 84.9 °F 91.4 °F 72.9 °F 67% 29.90 in 10.0 mi Calm Calm - N/A   Clear
12:56 PM 86.9 °F 93.3 °F 72.0 °F 61% 29.88 in 10.0 mi Calm Calm - N/A   Clear
1:56 PM 86.9 °F 93.3 °F 72.0 °F 61% 29.85 in 10.0 mi Calm Calm - N/A   Partly Cloudy
2:56 PM 88.9 °F 94.7 °F 70.9 °F 55% 29.83 in 10.0 mi Variable 3.5 mph - N/A   Clear
3:56 PM 88.0 °F 93.8 °F 70.9 °F 57% 29.81 in 10.0 mi Calm Calm - N/A   Partly Cloudy
4:56 PM 90.0 °F 95.4 °F 70.0 °F 52% 29.79 in 10.0 mi Calm Calm - N/A   Clear
5:56 PM 90.0 °F 94.5 °F 68.9 °F 50% 29.78 in 10.0 mi Variable 5.8 mph - N/A   Clear
6:56 PM 88.9 °F 93.8 °F 70.0 °F 53% 29.79 in 10.0 mi SSE 6.9 mph - N/A   Clear
7:56 PM 82.9 °F 87.5 °F 70.9 °F 67% 29.80 in 10.0 mi South 5.8 mph - N/A   Clear
8:56 PM 82.9 °F 87.5 °F 70.9 °F 67% 29.82 in 10.0 mi SSE 6.9 mph - N/A   Clear
9:56 PM 81.0 °F 85.6 °F 72.9 °F 76% 29.84 in 10.0 mi SSE 8.1 mph - N/A   Clear
10:56 PM 79.9 °F - 72.9 °F 79% 29.84 in 10.0 mi SE 4.6 mph - N/A   Clear
11:56 PM 79.0 °F - 72.9 °F 81% 29.83 in 10.0 mi ESE 4.6 mph - N/A   Clear